Regional Weather Roundup
Issued by NWS

Home | Current Version | Previous Version | Text Only | Print | Product List | Glossary Off
Versions: 1 2 3 4 5 6 7 8 9 10 11 12 13 14 15 16 17 18 19 20 21 22 23 24 25 26 27 28 29 30 31 32 33 34 35 36 37 38 39 40 41 42 43 44 45 46 47 48 49 50

000
ASUS45 KABQ 221901
RWRNM
WEATHER ROUNDUP FOR NEW MEXICO
NATIONAL WEATHER SERVICE ALBUQUERQUE NM
100 PM MDT TUE JUL 22 2014

NOTE: "FAIR" MEANS FEW OR NO CLOUDS BELOW 12,000 FEET AGL WITH NO
       SIGNIFICANT WEATHER OR OBSTRUCTIONS TO VISION.

      THIS PRODUCT IS RELEASED AS TWO VERSIONS.  ONE VERSION NEAR
      THE TOP OF THE HOUR CONTAINING PRELIMINARY DATA FROM ALBUQUERQUE
      AND OTHER STATIONS.  A FINAL VERSION WITH ADDITIONAL DATA IS
      ISSUED ABOUT 10 MINUTES AFTER THE HOUR.

NMZ501-503-504-510>518-222000-
NORTHWEST PLATEAU/NORTHCENTRAL MOUNTAINS

CITY           SKY/WX    TMP DP  RH WIND       PRES   REMARKS
FARMINGTON     SUNNY     93  33  12 W7        30.28F
LOS ALAMOS     SUNNY     84  40  20 NE10      30.42F
SANTA FE       MOSUNNY   90  42  18 N13G20    30.34F
TAOS           SUNNY     86  43  22 N8        30.43F
ANGEL FIRE     MOCLDY    77  42  28 NE9G23    30.55S

$$
NMZ402-403-502-505>509-222000-
WESTCENTRAL MOUNTAINS/SOUTHWEST MOUNTAINS

CITY           SKY/WX    TMP DP  RH WIND       PRES   REMARKS
GALLUP         PTSUNNY   86  33  15 S9        30.39S
GRANTS         PTSUNNY   87  31  13 CALM      30.38F

$$
NMZ407-409-411-412-222000-
SOUTHERN DESERTS

CITY           SKY/WX    TMP DP  RH WIND       PRES   REMARKS
LORDSBURG      FAIR      97  46  17 CALM      30.16F
DEMING         SUNNY     97  47  18 CALM      30.15F
LAS CRUCES     SUNNY     95  50  21 S7        30.18F
HOLLOMAN AFB   MOSUNNY   96  52  22 SE8       30.15S
T OR C         SUNNY     97  45  16 N7        30.19F

$$
NMZ519>523-222000-
CENTRAL VALLEYS/CENTRAL HIGHLANDS

CITY           SKY/WX    TMP DP  RH WIND       PRES   REMARKS
ALBUQUERQUE    MOSUNNY   91  47  21 N6        30.27F
DOUBLE EAGLE   MOSUNNY   84  52  32 CALM      30.33S
MORIARTY ARPT  FAIR      91  43  19 SE6       30.34F
CLINES CORNERS PTSUNNY   83  47  28 S12       30.38F
BELEN          FAIR      90  49  24 N7        30.25F
SOCORRO        FAIR      97  41  14 NE6       30.21F

$$
NMZ524>526-539-540-222000-
SOUTHCENTRAL MOUNTAINS

CITY           SKY/WX    TMP DP  RH WIND       PRES   REMARKS
RUIDOSO        NOT AVBL

$$
NMZ527>531-222000-
NORTHEAST HIGHLANDS/NORTHEAST PLAINS

CITY           SKY/WX    TMP DP  RH WIND       PRES   REMARKS
LAS VEGAS      MOSUNNY   85  48  27 NE18G25   30.41S
RATON          SUNNY     92  37  14 NE12G23   30.35R
CLAYTON        SUNNY     92  51  24 E10G18    30.26S

$$
NMZ532>537-222000-
EASTCENTRAL PLAINS

CITY           SKY/WX    TMP DP  RH WIND       PRES   REMARKS
TUCUMCARI      SUNNY     90  63  40 VRB7      30.20F
CANNON AFB     MOSUNNY   85  65  51 VRB5      30.25F
CLOVIS AIRPORT NOT AVBL

$$
NMZ028-029-538-222000-
SOUTHEAST PLAINS

CITY           SKY/WX    TMP DP  RH WIND       PRES   REMARKS
ROSWELL        SUNNY     92  65  40 SE12G20   30.16F
ARTESIA        SUNNY     91  63  38 SE16G23   30.15F
CARLSBAD       SUNNY     96  60  30 SE15G21   30.12F HX  96
HOBBS          MOSUNNY   91  57  31 SE5G17    30.19F


$$



USA.gov is the U.S. government's official web portal to all federal, state and local government web resources and services.